Location: Unspecified
(0.0000°N, 0.0000°E)
Time: 21:56:49
(UTC+01:00)

HO-68 - Visible Passes

Search period start: 23 February 2017 00:00
Search period end: 05 March 2017 00:00
Orbit: 1192 x 1205 km, 100.1° (Epoch: 23 February)

Date Brightness Start Highest point End Pass type
(mag) Time Alt. Az. Time Alt. Az. Time Alt. Az.
23 Feb ? 19:48:51 10° SSE 19:55:40 46° ENE 20:02:26 10° N visible
23 Feb ? 21:38:15 10° SSW 21:43:01 19° WSW 21:47:49 10° WNW visible
24 Feb ? 19:32:34 10° SE 19:38:49 32° ENE 19:45:01 10° NNE visible
24 Feb ? 21:20:18 10° SSW 21:26:12 28° WSW 21:32:05 10° NW visible
25 Feb ? 21:02:45 10° S 21:09:21 40° WSW 21:15:56 10° NW visible
26 Feb ? 20:45:29 10° S 20:52:29 56° WSW 20:59:28 10° NNW visible
27 Feb ? 20:28:25 10° S 20:35:37 79° WSW 20:42:48 10° NNW visible
28 Feb ? 20:11:34 10° SSE 20:18:46 75° ENE 20:25:55 10° N visible
01 Mar ? 19:54:56 10° SSE 20:01:54 53° ENE 20:08:49 10° N visible
01 Mar ? 21:45:09 10° SW 21:49:15 16° WSW 21:53:21 10° WNW visible
02 Mar ? 19:38:32 10° SE 19:45:03 37° ENE 19:51:30 10° N visible
02 Mar ? 21:26:56 10° SSW 21:32:25 24° WSW 21:37:54 10° NW visible
03 Mar ? 21:09:14 10° SSW 21:15:35 34° WSW 21:21:54 10° NW visible
04 Mar ? 20:51:51 10° S 20:58:43 49° WSW 21:05:34 10° NNW visible
